Location: Mountain Grove
(34.0887°N, 86.6172°W)
Time: 00:34:51
(UTC+00:00)

Cosmos 1420 Rocket - Pass Details

Date: 14 July 2020
Orbit: 754 x 781 km, 74.0° (Epoch: 12 August)

Event Time Altitude Azimuth Distance (km) Brightness Sun altitude
Rises 04:02:34 0° 345° (NNW) 3,258 8.4 -28.5°
Reaches altitude 10° 04:04:58 10° 348° (NNW) 2,330 7.4 -28.7°
Enters shadow 04:09:29 61° 19° (NNE) 881 4.3 -29.2°
